[Date Prev][Date Next][Thread Prev][Thread Next] - [Date Index][Thread Index][Author Index]
2 Line ISS Keps 5-13
- Subject: [sarex] 2 Line ISS Keps 5-13
- From: "Dave Larsen PhD" <doc@xxxxxxxxxxx>
- Date: Thu, 13 May 2004 03:44:51 -0700
ISS
1 25544U 98067A 04134.38073721 .00010000 00000-0 88241-4 0 7652
2 25544 51.6263 143.1164 0010911 128.8057 11.3768 15.69364848312857
----
Via the sarex mailing list at AMSAT.ORG courtesy of AMSAT-NA.
To unsubscribe, send "unsubscribe sarex" to Majordomo@amsat.org
AMSAT Home